Location: Leyland
(53.0333°N, 117.3167°W)
Time: 21:25:10
(UTC+00:00)

BlueWalker 3 - Visible Passes

Search period start: 15 April 2024 00:00
Search period end: 25 April 2024 00:00
Orbit: 485 x 496 km, 53.2° (Epoch: 15 April)

Date Brightness Start Highest point End Pass type
(mag) Time Alt. Az. Time Alt. Az. Time Alt. Az.
15 Apr 3.9 09:27:27 20° ESE 09:27:27 20° ESE 09:28:41 10° ESE visible
15 Apr 2.6 11:01:56 28° WSW 11:02:49 32° SSW 11:06:16 10° SSE visible
16 Apr 3.1 10:39:36 26° S 10:39:36 26° S 10:41:46 10° SSE visible
17 Apr 3.9 03:41:31 10° SE 03:42:01 10° SE 03:42:28 10° SE visible
17 Apr 3.7 05:15:51 10° SW 05:17:04 18° SSW 05:17:04 18° SSW visible
18 Apr 2.4 04:51:20 10° SW 04:54:53 38° SSE 04:55:29 35° SE visible
18 Apr 4.1 06:29:05 10° WSW 06:30:01 17° WSW 06:30:01 17° WSW visible
19 Apr 2.4 04:26:48 10° SW 04:30:20 37° SSE 04:33:08 15° E visible
19 Apr 2.2 06:04:32 10° WSW 06:07:38 57° WSW 06:07:38 57° WSW visible
20 Apr 2.5 04:02:15 10° SW 04:05:45 35° SSE 04:09:17 10° E visible
20 Apr 1.7 05:39:56 10° WSW 05:43:46 85° S 05:44:40 51° E visible
20 Apr 4.2 07:18:13 10° W 07:19:07 16° W 07:19:07 16° W visible
21 Apr 2.6 03:37:41 10° SW 03:41:10 34° SSE 03:44:40 10° E visible
21 Apr 1.8 05:15:21 10° WSW 05:19:10 84° S 05:21:20 25° E visible
21 Apr 3.3 06:53:37 10° W 06:55:46 32° W 06:55:46 32° W visible
22 Apr 1.8 04:50:44 10° WSW 04:54:33 83° SSE 04:57:47 14° E visible
22 Apr 2.2 06:29:00 10° W 06:32:12 60° W 06:32:12 60° W visible
23 Apr 1.8 04:26:06 10° WSW 04:29:55 82° SSE 04:33:46 10° E visible
23 Apr 1.8 06:04:22 10° W 06:08:13 89° S 06:08:31 75° ESE visible
23 Apr 4.6 07:42:40 10° W 07:42:55 12° W 07:42:55 12° W visible
24 Apr 1.8 04:01:27 10° WSW 04:05:17 81° SSE 04:09:07 10° E visible
24 Apr 1.8 05:39:43 10° W 05:43:34 90° ESE 05:44:44 43° E visible
24 Apr 4.1 07:18:00 10° W 07:19:08 18° W 07:19:08 18° W visible
